レモン-リード彗星

P/2018 C1 ( Lemmon-Read )

English version
Home page
Updated on September 23, 2018

---------------------------------------------------------------------

・ プロフィール

発見日 2018年2月4日、2月9日
発見光度 19.1等、19.1等
発見者 Mt. Lemmon Survey, Mike T. Read (Spacewatch, Kitt Peak)

・ 写真集

・ 軌道要素

Epoch 2018 Feb. 11.0 TT = JDT 2458160.5
T 2018 Feb. 25.54869 TT                                 MPCW
q   2.5957408            (2000.0)            P               Q
n   0.07486316     Peri.  234.32359     -0.81361975     -0.57447135
a   5.5755870      Node   270.44988     +0.55814885     -0.72869665
e   0.5344453      Incl.    5.13350     +0.16276597     -0.37280540
P  13.17
From 117 observations 2018 Jan. 16-May 28, mean residual 0".4.

・ 光度変化

        m1 = 9.5 + 5 logΔ + 20.0 log r

---------------------------------------------------------------------

軌道要素はM.P.E.C. 2018-S50に掲載されたものです。
光度グラフはComet for Windowsで作成したものです。

---------------------------------------------------------------------

Copyright(C) Seiichi Yoshida (comet@aerith.net). All rights reserved.